Theta_e
310 310 310 310 310 310 310 310 309 309 309 309 310 310 310 310 310 316 316 314 313 313 315 316 316 317 318 320 319 320 321 321 321 319 318 318 318 319 318 318 319 318 318 319 317
312 311 311 310 310 309 309 309 309 309 308 308 308 309 310 310 313 316 315 311 310 313 316 317 318 317 320 321 321 320 322 320 320 318 318 318 318 318 318 318 319 319 319 318 317
314 314 313 312 312 311 311 311 310 310 310 310 310 308 307 310 318 314 314 313 311 313 316 317 317 318 319 320 321 321 321 320 319 319 318 317 318 318 318 318 318 318 319 319 318
315 315 315 314 314 314 314 314 314 314 313 314 313 311 307 314 316 311 315 313 311 315 315 316 317 318 319 320 320 321 320 320 320 319 317 318 318 318 317 318 318 318 318 318 318
315 315 315 315 315 316 316 317 317 316 315 315 314 313 310 314 314 312 311 312 312 314 315 317 317 318 318 318 319 320 319 318 319 319 319 318 318 318 318 318 318 318 318 317 317
315 315 315 316 317 317 318 319 319 317 316 314 314 312 315 316 311 311 312 313 315 314 315 316 317 317 317 317 317 317 318 317 317 317 317 317 317 316 316 317 317 316 316 316 317
316 316 317 318 318 319 320 320 319 318 317 314 312 311 313 316 312 316 313 317 315 315 316 316 316 316 316 317 317 316 316 316 316 316 316 315 316 316 317 317 316 316 316 316 316
318 318 319 319 320 320 321 320 319 316 312 311 310 316 315 309 310 309 313 313 314 314 314 313 314 316 316 316 315 315 316 317 317 315 315 315 316 316 316 315 315 315 315 316 316
319 319 320 321 323 323 323 320 314 311 312 309 315 316 315 308 311 310 311 312 313 312 311 311 314 315 316 316 316 317 318 318 318 317 315 315 315 316 316 315 315 315 315 315 315
319 320 322 323 323 323 322 319 312 313 314 312 313 312 311 312 311 309 309 311 312 313 313 314 315 315 316 316 318 319 319 318 318 316 315 315 315 315 315 315 315 315 315 315 315
321 321 323 323 323 323 321 317 322 321 319 322 324 318 321 310 309 310 309 310 312 314 315 315 315 316 317 318 317 316 316 317 316 316 316 317 316 316 315 315 315 315 315 316 315
323 323 323 323 323 322 319 322 317 314 323 322 319 316 314 310 314 311 309 312 313 315 315 315 316 316 316 316 314 315 316 316 316 316 317 316 315 314 314 315 315 315 315 315 313
322 322 323 324 322 321 319 316 312 310 320 322 314 314 313 312 318 318 311 313 314 316 315 317 318 316 314 315 315 316 316 316 316 316 315 314 315 316 316 317 316 315 314 311 311
322 323 323 323 322 322 319 316 310 310 324 323 314 310 309 311 312 307 309 312 313 317 316 316 313 312 313 314 314 315 315 314 314 314 315 313 315 316 317 318 314 312 310 310 308
322 322 322 322 324 323 315 315 311 310 333 316 310 308 309 311 310 309 307 310 314 314 313 315 314 313 313 313 313 314 312 312 312 312 314 315 316 318 317 317 314 311 309 308 306
319 320 320 321 321 319 319 318 314 325 332 323 311 312 310 309 308 309 310 308 310 312 312 315 310 311 313 312 312 311 311 313 314 314 319 319 319 319 318 315 310 309 308 307 306
318 317 318 319 321 320 320 322 327 328 323 325 316 311 315 313 310 310 313 314 318 320 321 318 315 315 310 313 312 310 313 321 326 322 324 316 322 318 317 313 311 310 308 306 305
310 310 311 317 318 319 321 324 328 322 321 322 319 316 322 318 318 315 318 321 318 317 319 318 317 314 309 312 316 314 318 327 331 328 326 321 323 321 317 310 309 308 307 305 304
306 306 308 311 315 318 321 324 322 319 319 320 320 321 320 319 320 320 319 318 317 315 317 319 318 313 308 309 314 319 322 320 323 323 324 319 317 318 319 313 310 309 306 304 302
304 307 309 308 312 317 318 318 315 315 317 319 320 319 318 318 318 316 316 316 317 312 312 318 322 319 317 310 312 312 311 316 316 320 321 318 320 319 314 313 311 307 304 301 300
302 307 306 308 314 315 316 313 310 311 314 318 317 317 315 315 316 316 316 316 318 313 314 317 318 317 315 315 314 311 312 312 315 320 321 322 320 316 314 312 310 304 301 300 298
305 306 308 312 312 313 314 312 310 312 313 313 315 314 315 314 314 314 313 313 315 315 316 315 316 318 314 312 312 315 316 316 318 319 319 320 320 310 309 305 303 301 300 298 297
304 306 308 311 312 314 311 311 311 311 312 312 312 312 311 312 312 310 310 311 313 313 315 314 315 316 315 309 313 316 315 315 316 315 317 319 317 309 304 303 301 300 298 296 295
304 305 307 309 311 309 309 309 310 310 310 310 309 309 310 310 309 309 309 311 310 310 308 311 312 314 313 308 309 312 312 312 314 316 315 316 314 310 309 309 304 298 297 296 293
301 302 305 309 309 309 307 306 306 308 307 307 307 307 307 307 307 307 307 307 307 306 306 308 309 308 308 308 308 309 309 309 310 310 311 311 310 307 306 304 299 294 293 294 294
299 300 300 304 306 308 307 307 306 306 305 304 306 305 307 307 306 306 306 305 304 303 303 304 304 304 304 303 303 303 303 304 305 305 305 304 303 303 299 295 296 295 292 291 291
295 296 299 300 302 305 306 306 303 304 302 301 303 302 302 302 302 301 300 300 301 301 301 301 301 302 302 300 300 301 301 301 301 302 301 301 301 296 296 293 292 292 291 291 291
Wind_Speed
3 4 5 5 6 6 6 7 7 8 9 10 10 11 13 15 17 9 8 5 4 9 10 9 7 5 5 3 3 2 5 8 9 7 3 4 6 5 4 9 9 7 12 11 2
5 5 6 6 7 8 8 9 9 10 10 11 11 12 13 16 14 12 10 8 6 12 11 12 8 8 5 3 3 6 8 9 6 9 9 10 9 12 11 13 16 15 18 16 11
5 6 7 7 7 8 8 9 10 11 12 12 12 11 10 12 7 2 0 3 7 14 8 10 6 8 9 6 7 6 11 13 13 12 14 13 14 13 13 18 17 14 10 12 13
5 6 7 8 8 9 10 10 11 12 12 12 12 11 8 3 6 1 1 4 9 12 9 8 7 6 7 9 9 10 15 16 19 10 7 13 17 13 15 25 19 20 20 18 16
4 5 6 7 8 10 10 12 13 14 14 14 12 9 3 5 7 5 4 5 11 10 12 9 10 10 12 8 9 15 16 17 14 15 14 17 22 19 23 22 23 21 18 18 16
4 5 6 7 9 10 12 15 16 16 15 15 12 6 4 10 4 5 4 8 9 14 13 13 5 9 12 13 12 12 12 17 18 17 15 16 23 17 23 16 19 14 16 15 16
3 4 6 7 9 11 13 16 16 16 16 13 10 4 6 11 3 2 4 4 6 8 10 12 8 7 5 10 8 10 14 17 20 20 14 6 18 16 20 14 16 17 16 16 16
4 4 5 8 11 13 16 18 18 13 9 7 4 4 7 4 1 3 4 1 4 5 6 3 7 9 8 6 6 9 14 15 13 2 2 7 18 18 10 10 14 17 21 20 23
4 5 6 8 11 14 17 18 11 6 5 4 2 4 5 2 1 1 2 3 5 4 2 3 5 8 8 12 13 14 16 20 16 15 3 11 12 13 18 20 20 23 24 20 21
5 5 6 8 11 14 16 13 5 3 3 2 1 4 4 2 2 2 1 6 2 7 5 6 6 8 10 12 14 18 18 20 14 11 11 15 20 20 22 21 22 23 21 18 16
7 6 6 9 12 14 12 5 4 4 4 6 9 8 9 2 1 3 1 5 4 6 5 8 8 10 16 16 20 22 23 25 21 19 23 23 24 20 21 22 25 20 17 12 9
9 8 9 11 11 9 6 3 4 2 9 12 12 8 5 2 3 4 4 6 4 8 5 4 12 16 16 17 13 18 22 24 22 18 16 18 24 25 25 24 20 17 12 5 9
11 11 11 9 6 3 4 3 2 1 6 3 2 3 1 4 4 2 4 3 8 11 10 15 15 15 12 15 18 20 19 22 25 20 19 19 20 14 8 14 10 8 10 17 14
10 8 5 4 1 1 2 1 2 1 5 5 3 2 2 2 3 1 2 3 4 6 5 9 2 4 10 14 17 19 16 15 14 12 11 5 9 15 19 13 11 14 16 15 15
7 5 7 5 1 1 3 0 3 1 7 2 3 2 2 3 4 3 3 5 5 5 5 2 5 5 8 9 11 15 5 8 9 11 15 13 9 4 5 7 16 13 13 14 14
7 6 5 2 2 2 3 2 1 4 7 1 2 3 3 4 2 3 2 4 5 4 10 13 2 4 4 8 8 5 10 14 16 8 8 13 13 6 3 8 13 12 12 12 12
6 5 5 3 2 4 3 3 4 5 3 5 1 2 2 3 4 6 6 6 5 9 12 11 12 9 4 7 8 7 8 6 5 7 7 5 7 10 11 7 9 10 10 10 11
6 4 3 3 3 4 5 4 8 3 8 3 3 4 4 1 6 5 6 14 12 6 10 10 12 6 8 6 4 6 2 3 5 8 15 15 9 10 3 12 12 10 10 10 9
4 4 2 3 6 4 4 7 5 9 12 10 9 11 15 12 6 7 12 16 11 5 7 8 6 3 4 1 3 4 5 5 4 8 5 9 21 19 14 12 10 10 9 8 8
6 2 4 9 10 5 5 12 10 8 3 7 14 11 13 9 11 8 9 3 2 1 4 2 8 4 3 2 8 5 4 4 5 6 14 14 18 13 9 5 7 6 7 9 9
7 2 2 8 11 5 8 8 9 10 5 6 12 17 15 13 11 13 8 2 3 4 1 4 4 6 5 6 12 3 4 5 4 5 10 13 8 5 10 5 8 5 4 6 7
6 4 6 20 6 4 10 5 2 7 5 10 5 12 15 12 11 15 15 15 2 2 5 7 4 9 22 21 19 14 16 16 9 8 8 11 12 8 9 8 3 2 3 4 4
4 2 6 7 7 11 9 8 11 7 10 6 6 7 5 12 7 11 13 3 8 4 4 5 3 5 7 13 1 5 5 7 12 4 15 15 11 7 8 6 3 6 3 2 3
4 5 2 3 8 8 14 13 14 5 10 11 8 8 9 12 11 8 7 2 5 4 3 1 7 11 13 18 20 20 22 18 11 6 13 10 15 21 18 10 5 4 5 4 2
2 3 1 6 10 13 11 4 10 10 7 4 6 16 12 10 11 16 13 10 6 1 4 4 9 14 17 19 17 15 17 23 22 19 18 21 22 23 20 15 6 3 4 4 5
2 2 2 2 7 16 14 11 16 11 7 8 11 7 9 7 8 6 9 8 11 6 4 5 9 11 15 19 20 22 25 27 23 23 25 24 26 22 9 2 4 3 4 7 9
2 1 3 4 6 8 12 15 9 11 3 6 6 5 7 9 4 3 3 5 8 5 6 6 6 6 16 17 16 14 22 21 25 25 24 22 17 7 6 3 3 6 9 10 11
Wind_Direction
357 355 353 351 351 348 343 338 334 330 329 328 328 328 328 327 322 311 264 251 224 197 161 161 182 193 206 212 232 267 250 261 267 267 284 150 268 158 291 276 251 243 275 315 73
356 354 353 351 346 342 337 334 330 327 327 327 326 324 326 328 316 276 264 249 227 184 170 182 194 193 219 237 214 233 250 275 287 283 273 296 280 293 290 269 270 258 248 260 237
350 351 350 350 351 346 337 331 328 327 329 329 329 327 326 330 293 68 192 203 190 180 205 213 242 209 244 249 213 217 248 269 285 278 286 284 285 275 262 272 270 281 292 298 289
335 344 349 349 353 348 343 337 331 321 318 319 322 325 325 311 300 94 298 202 183 177 186 186 201 219 251 235 248 262 254 270 284 297 286 272 285 270 261 265 284 287 291 292 280
324 335 344 345 348 346 341 335 329 321 314 310 311 316 321 239 262 275 269 186 181 185 201 206 224 240 257 268 284 247 272 276 280 277 269 278 270 268 269 282 282 284 281 272 264
313 329 340 343 345 345 339 332 324 316 308 300 299 296 252 261 284 263 223 185 188 196 212 216 229 255 286 278 260 303 295 282 279 272 264 261 273 282 270 279 281 276 278 270 265
304 324 337 341 343 344 336 328 320 315 306 296 285 218 244 259 233 218 176 179 205 221 232 229 254 224 319 260 289 281 293 293 280 266 256 276 272 248 271 264 273 290 284 290 288
298 316 336 345 345 342 334 328 322 322 323 303 256 189 261 238 263 248 212 154 200 209 238 258 228 262 255 283 252 272 272 277 289 5 168 197 277 293 326 333 290 281 289 290 286
277 306 328 341 343 340 334 329 328 338 16 77 124 232 267 30 68 359 222 234 156 162 135 144 199 237 227 246 273 249 269 281 292 303 292 212 277 290 313 302 289 284 287 293 293
263 287 313 335 339 337 334 327 324 342 353 40 242 231 177 15 75 85 87 161 161 153 150 192 210 229 235 249 254 278 283 294 285 282 248 260 262 277 282 282 275 274 287 294 296
264 274 295 320 329 336 341 311 247 207 228 290 298 283 307 30 119 72 92 161 156 204 221 192 224 224 253 255 261 277 284 282 283 288 291 289 291 291 291 284 269 281 286 294 320
264 274 287 302 317 338 354 20 43 350 292 264 266 273 252 286 283 130 156 207 212 245 194 200 247 262 279 281 288 281 280 281 284 281 290 295 290 295 280 275 280 286 299 341 65
260 269 281 305 325 33 61 67 335 331 255 229 216 254 190 217 242 210 219 201 224 254 229 261 282 306 290 276 271 266 275 284 291 305 300 289 286 266 268 275 305 0 86 75 63
245 260 271 312 268 139 123 330 334 266 273 172 176 129 158 215 189 191 217 252 193 264 253 260 360 319 293 275 272 282 294 309 306 311 297 18 288 301 277 270 94 72 72 60 52
206 235 258 229 327 236 133 255 322 251 290 77 129 111 133 247 101 161 199 174 230 217 233 100 203 225 263 256 272 279 347 316 299 278 284 273 254 277 264 250 114 92 64 58 56
217 222 215 262 233 207 179 313 284 224 240 147 111 176 193 184 169 109 261 270 349 239 224 257 117 227 234 298 244 315 286 276 261 273 261 266 244 286 42 33 100 94 77 66 51
187 191 197 173 4 199 181 226 236 225 150 158 176 192 271 188 195 203 185 195 257 298 276 286 234 214 211 255 211 231 257 291 268 214 264 91 331 256 302 97 126 121 97 81 69
194 206 228 181 168 145 240 219 233 241 244 100 140 165 235 113 248 211 273 273 265 236 279 280 290 181 159 222 312 194 305 221 274 284 301 311 270 268 98 109 108 106 99 88 67
203 240 254 214 186 187 250 232 225 237 246 239 239 269 265 251 248 277 272 276 298 229 247 304 258 86 232 341 282 117 218 225 250 250 265 254 267 270 239 136 129 116 97 77 66
153 155 228 219 179 187 226 245 250 241 285 259 250 248 259 234 240 244 268 73 211 254 224 50 294 276 249 260 224 217 341 233 177 263 266 262 269 257 166 175 130 74 58 39 29
130 182 192 175 148 193 224 230 266 259 257 240 254 261 272 275 268 265 265 243 231 177 53 131 181 271 254 226 264 225 239 219 292 239 258 268 254 234 354 11 124 89 41 27 21
145 202 155 155 181 208 229 221 258 230 215 239 275 260 265 263 268 257 255 253 133 315 251 234 244 260 272 283 284 278 266 261 243 232 222 254 264 3 49 91 61 3 356 13 10
176 132 178 194 207 216 232 235 239 216 211 200 236 232 246 255 260 255 257 320 18 335 347 26 271 286 283 278 266 239 348 337 315 278 263 275 280 71 137 149 213 248 255 284 327
164 161 163 228 259 244 226 238 225 196 248 234 243 259 252 253 249 254 247 128 20 12 59 304 250 245 259 275 300 292 296 284 253 266 289 268 287 287 286 294 232 230 227 241 248
196 187 187 193 223 227 238 237 231 218 225 239 249 238 243 247 251 250 262 283 261 135 268 263 258 272 275 278 283 283 280 275 269 271 268 279 285 286 296 302 324 347 338 292 263
191 171 208 190 186 213 214 225 230 211 193 219 242 225 193 237 232 285 311 260 263 280 262 203 267 289 277 275 275 273 268 266 272 275 272 274 274 279 348 35 263 279 301 310 311
151 178 283 155 190 194 215 225 235 238 204 262 257 220 238 267 319 327 269 271 264 261 258 259 262 276 268 283 291 272 257 263 262 266 272 276 298 339 323 306 319 320 309 313 320